Year,Month,Day,Hour,Minute,Value (Times are PST for temperature in C)
2018,02,17,09,05,3.70
2018,02,17,09,06,3.70
2018,02,17,09,07,3.70
2018,02,17,09,08,3.70
2018,02,17,09,09,3.70
2018,02,17,09,10,3.70
2018,02,17,09,11,3.70
2018,02,17,09,12,3.70
2018,02,17,09,13,3.70
2018,02,17,09,14,3.70
2018,02,17,09,15,3.70
2018,02,17,09,16,3.70
2018,02,17,09,17,3.70
2018,02,17,09,18,3.70
2018,02,17,09,19,3.70
2018,02,17,09,20,3.70
2018,02,17,09,21,3.70
2018,02,17,09,22,3.70
2018,02,17,09,23,3.70
2018,02,17,09,24,3.70
2018,02,17,09,25,3.70
2018,02,17,09,26,3.70
2018,02,17,09,27,3.70
2018,02,17,09,28,3.70
2018,02,17,09,44,4.60
2018,02,17,09,45,4.60
2018,02,17,09,46,4.60
2018,02,17,09,47,4.70
2018,02,17,09,48,4.70
2018,02,17,09,49,4.80
2018,02,17,09,50,4.80
2018,02,17,09,51,4.80
2018,02,17,09,52,4.90
2018,02,17,09,53,4.90
2018,02,17,09,54,4.90
2018,02,17,09,55,4.90
2018,02,17,09,56,4.90
2018,02,17,09,57,5.00
2018,02,17,09,58,5.00
2018,02,17,09,59,5.00
2018,02,17,10,00,5.10
2018,02,17,10,01,5.10
2018,02,17,10,02,5.10
2018,02,17,10,03,5.10
2018,02,17,10,04,5.10
2018,02,17,10,05,5.10
2018,02,17,10,06,5.10
2018,02,17,10,07,5.10
2018,02,17,10,08,5.10
2018,02,17,10,09,5.20
2018,02,17,10,10,5.20
2018,02,17,10,11,5.30
2018,02,17,10,12,5.40
2018,02,17,10,13,5.40
2018,02,17,10,14,5.50
2018,02,17,10,15,5.50
2018,02,17,10,16,5.60
2018,02,17,10,17,5.70
2018,02,17,10,18,5.80
2018,02,17,10,19,5.80
2018,02,17,10,20,5.80
2018,02,17,10,21,5.80
2018,02,17,10,22,5.90
2018,02,17,10,23,5.90
2018,02,17,10,24,5.90
2018,02,17,10,25,6.00
2018,02,17,10,26,6.10
2018,02,17,10,27,6.10
2018,02,17,10,28,6.20
2018,02,17,10,29,6.20
2018,02,17,10,30,6.20
2018,02,17,10,31,6.30
2018,02,17,10,32,6.30
2018,02,17,10,33,6.30
2018,02,17,10,34,6.30
2018,02,17,10,35,6.30
2018,02,17,10,36,6.30
2018,02,17,10,37,6.30
2018,02,17,10,38,6.30
2018,02,17,10,39,6.20
2018,02,17,10,40,6.20
2018,02,17,10,41,6.20
2018,02,17,10,42,6.10
2018,02,17,10,43,6.00
2018,02,17,10,44,6.00
2018,02,17,10,45,6.00
2018,02,17,10,46,6.00
2018,02,17,10,47,6.00
2018,02,17,10,48,6.00
2018,02,17,10,49,6.00
2018,02,17,10,50,6.00
2018,02,17,10,51,6.00
2018,02,17,10,52,5.90
2018,02,17,10,53,5.90
2018,02,17,10,54,6.00
2018,02,17,10,55,6.00
2018,02,17,10,56,6.10
2018,02,17,10,57,6.10
2018,02,17,10,58,6.10
2018,02,17,10,59,6.20
2018,02,17,11,00,6.20
2018,02,17,11,01,6.20
2018,02,17,11,02,6.20
2018,02,17,11,03,6.20
2018,02,17,11,04,6.20
2018,02,17,11,05,6.20
2018,02,17,11,06,6.20
2018,02,17,11,07,6.30
2018,02,17,11,08,6.40
2018,02,17,11,09,6.40
2018,02,17,11,10,6.40
2018,02,17,11,11,6.40
2018,02,17,11,12,6.50
2018,02,17,11,13,6.40
2018,02,17,11,14,6.50
2018,02,17,11,15,6.50
2018,02,17,11,16,6.40
2018,02,17,11,17,6.40
2018,02,17,11,18,6.50
2018,02,17,11,19,6.40
2018,02,17,11,20,6.40
2018,02,17,11,21,6.40
2018,02,17,11,22,6.40
2018,02,17,11,23,6.40
2018,02,17,11,24,6.40
2018,02,17,11,25,6.40
2018,02,17,11,26,6.40
2018,02,17,11,27,6.50
2018,02,17,11,28,6.60
2018,02,17,11,29,6.60
2018,02,17,11,30,6.60
2018,02,17,11,31,6.60
2018,02,17,11,32,6.50
2018,02,17,11,33,6.50
2018,02,17,11,34,6.40
2018,02,17,11,35,6.40
2018,02,17,11,36,6.30
2018,02,17,11,37,6.40
2018,02,17,11,38,6.40
2018,02,17,11,39,6.50
2018,02,17,11,40,6.50
2018,02,17,11,41,6.50
2018,02,17,11,42,6.50
2018,02,17,11,43,6.50
2018,02,17,11,44,6.50
2018,02,17,11,45,6.50
2018,02,17,11,46,6.50
2018,02,17,11,47,6.50
2018,02,17,11,48,6.50
2018,02,17,11,49,6.40
2018,02,17,11,50,6.40
2018,02,17,11,51,6.40
2018,02,17,11,52,6.40
2018,02,17,11,53,6.30
2018,02,17,11,54,6.30
2018,02,17,11,55,6.30
2018,02,17,11,56,6.30
2018,02,17,11,57,6.30
2018,02,17,11,58,6.30
2018,02,17,11,59,6.30
2018,02,17,12,00,6.30
2018,02,17,12,01,6.40
2018,02,17,12,02,6.40
2018,02,17,12,03,6.50
2018,02,17,12,04,6.50
2018,02,17,12,05,6.50
2018,02,17,12,06,6.40
2018,02,17,12,07,6.40
2018,02,17,12,08,6.50
2018,02,17,12,09,6.50
2018,02,17,12,10,6.60
2018,02,17,12,11,6.60
2018,02,17,12,12,6.60
2018,02,17,12,13,6.60
2018,02,17,12,14,6.70
2018,02,17,12,15,6.70
2018,02,17,12,16,6.60
2018,02,17,12,17,6.60
2018,02,17,12,18,6.70
2018,02,17,12,19,6.70
2018,02,17,12,20,6.80
2018,02,17,12,21,6.80
2018,02,17,12,22,6.80
2018,02,17,12,23,6.70
2018,02,17,12,24,6.70
2018,02,17,12,25,6.80
2018,02,17,12,26,6.80
2018,02,17,12,27,6.70
2018,02,17,12,28,6.70
2018,02,17,12,29,6.70
2018,02,17,12,30,6.60
2018,02,17,12,31,6.60
2018,02,17,12,32,6.50
2018,02,17,12,33,6.50
2018,02,17,12,34,6.40
2018,02,17,12,35,6.30
2018,02,17,12,36,6.30
2018,02,17,12,37,6.20
2018,02,17,12,38,6.20
2018,02,17,12,39,6.20
2018,02,17,12,40,6.20
2018,02,17,12,41,6.10
2018,02,17,12,42,6.10
2018,02,17,12,43,6.10
2018,02,17,12,44,6.00
2018,02,17,12,45,6.00
2018,02,17,12,46,5.90
2018,02,17,12,47,5.90
2018,02,17,12,48,5.90
2018,02,17,12,49,5.90
2018,02,17,12,50,5.90
2018,02,17,12,51,5.90
2018,02,17,12,52,6.00
2018,02,17,12,53,6.10
2018,02,17,12,54,6.20
2018,02,17,12,55,6.20
2018,02,17,12,56,6.30
2018,02,17,12,57,6.40
2018,02,17,12,58,6.40
2018,02,17,12,59,6.40
2018,02,17,13,00,6.40
2018,02,17,13,01,6.40
2018,02,17,13,02,6.40
2018,02,17,13,03,6.40
2018,02,17,13,04,6.30
2018,02,17,13,05,6.30
2018,02,17,13,06,6.30
2018,02,17,13,07,6.30
2018,02,17,13,08,6.20
2018,02,17,13,09,6.20
2018,02,17,13,10,6.20
2018,02,17,13,11,6.20
2018,02,17,13,12,6.30
2018,02,17,13,13,6.30
2018,02,17,13,14,6.30
2018,02,17,13,15,6.30
2018,02,17,13,16,6.30
2018,02,17,13,17,6.30
2018,02,17,13,18,6.30
2018,02,17,13,19,6.40
2018,02,17,13,20,6.30
2018,02,17,13,21,6.40
2018,02,17,13,22,6.40
2018,02,17,13,23,6.50
2018,02,17,13,24,6.60
2018,02,17,13,25,6.70
2018,02,17,13,26,6.70
2018,02,17,13,27,6.80
2018,02,17,13,28,6.80
2018,02,17,13,29,6.80
2018,02,17,13,30,6.90
2018,02,17,13,31,7.00
2018,02,17,13,32,7.00
2018,02,17,13,33,7.20
2018,02,17,13,34,7.30
2018,02,17,13,35,7.30
2018,02,17,13,36,7.30
2018,02,17,13,37,7.40
2018,02,17,13,38,7.40
2018,02,17,13,39,7.40
2018,02,17,13,40,7.40
2018,02,17,13,41,7.40
2018,02,17,13,42,7.40
2018,02,17,13,43,7.40
2018,02,17,13,44,7.50
2018,02,17,13,45,7.50
2018,02,17,13,46,7.50
2018,02,17,13,47,7.50
2018,02,17,13,48,7.60
2018,02,17,13,49,7.60
2018,02,17,13,50,7.60
2018,02,17,13,51,7.70
2018,02,17,13,52,7.70
2018,02,17,13,53,7.70
2018,02,17,13,54,7.70
2018,02,17,13,55,7.70
2018,02,17,13,56,7.70
2018,02,17,13,57,7.60
2018,02,17,13,58,7.60
2018,02,17,13,59,7.50
2018,02,17,14,00,7.50
2018,02,17,14,01,7.50
2018,02,17,14,02,7.50
2018,02,17,14,03,7.50
2018,02,17,14,04,7.60
2018,02,17,14,05,7.60
2018,02,17,14,06,7.60
2018,02,17,14,07,7.70
2018,02,17,14,08,7.70
2018,02,17,14,09,7.80
2018,02,17,14,10,7.80
2018,02,17,14,11,7.80
2018,02,17,14,12,7.80
2018,02,17,14,13,7.70
2018,02,17,14,14,7.70
2018,02,17,14,15,7.70
2018,02,17,14,16,7.70
2018,02,17,14,17,7.60
2018,02,17,14,18,7.60
2018,02,17,14,19,7.60
2018,02,17,14,20,7.70
2018,02,17,14,21,7.80
2018,02,17,14,22,7.90
2018,02,17,14,23,7.90
2018,02,17,14,24,8.00
2018,02,17,14,25,8.10
2018,02,17,14,26,8.10
2018,02,17,14,27,8.00
2018,02,17,14,28,8.00
2018,02,17,14,29,8.10
2018,02,17,14,30,8.10
2018,02,17,14,31,8.10
2018,02,17,14,32,8.10
2018,02,17,14,33,8.10
2018,02,17,14,34,8.10
2018,02,17,14,35,8.10
2018,02,17,14,36,8.10
2018,02,17,14,37,8.10
2018,02,17,14,38,8.20
2018,02,17,14,39,8.20
2018,02,17,14,40,8.20
2018,02,17,14,41,8.30
2018,02,17,14,42,8.30
2018,02,17,14,43,8.30
2018,02,17,14,44,8.30
2018,02,17,14,45,8.30
2018,02,17,14,46,8.30
2018,02,17,14,47,8.30
2018,02,17,14,48,8.30
2018,02,17,14,49,8.20
2018,02,17,14,50,8.10
2018,02,17,14,51,8.00
2018,02,17,14,52,7.90
2018,02,17,14,53,7.90
2018,02,17,14,54,7.80
2018,02,17,14,55,7.80
2018,02,17,14,56,7.80
2018,02,17,14,57,7.80
2018,02,17,14,58,7.80
2018,02,17,14,59,7.80
2018,02,17,15,00,7.80
2018,02,17,15,01,7.80
2018,02,17,15,02,7.70
2018,02,17,15,03,7.70
2018,02,17,15,04,7.70
2018,02,17,15,05,7.60
2018,02,17,15,06,7.60
2018,02,17,15,07,7.50
2018,02,17,15,08,7.40
2018,02,17,15,09,7.40
2018,02,17,15,10,7.40
2018,02,17,15,11,7.40
2018,02,17,15,12,7.40
2018,02,17,15,13,7.40
2018,02,17,15,14,7.40
2018,02,17,15,15,7.30
2018,02,17,15,16,7.30
2018,02,17,15,17,7.30
2018,02,17,15,18,7.30
2018,02,17,15,19,7.30
2018,02,17,15,20,7.30
2018,02,17,15,21,7.30
2018,02,17,15,22,7.30
2018,02,17,15,23,7.30
2018,02,17,15,24,7.30
2018,02,17,15,25,7.30
2018,02,17,15,26,7.30
2018,02,17,15,27,7.30
2018,02,17,15,28,7.30
2018,02,17,15,29,7.20
2018,02,17,15,30,7.20
2018,02,17,15,31,7.20
2018,02,17,15,32,7.20
2018,02,17,15,33,7.20
2018,02,17,15,34,7.20
2018,02,17,15,35,7.20
2018,02,17,15,36,7.20
2018,02,17,15,37,7.30
2018,02,17,15,38,7.30
2018,02,17,15,39,7.40
2018,02,17,15,40,7.40
2018,02,17,15,41,7.40
2018,02,17,15,42,7.50
2018,02,17,15,43,7.50
2018,02,17,15,44,7.50
2018,02,17,15,45,7.60
2018,02,17,15,46,7.60
2018,02,17,15,47,7.60
2018,02,17,15,48,7.60
2018,02,17,15,49,7.60
2018,02,17,15,50,7.60
2018,02,17,15,51,7.60
2018,02,17,15,52,7.60
2018,02,17,15,53,7.60
2018,02,17,15,54,7.70
2018,02,17,15,55,7.70
2018,02,17,15,56,7.70
2018,02,17,15,57,7.80
2018,02,17,15,58,7.80
2018,02,17,15,59,7.90
2018,02,17,16,00,7.90
2018,02,17,16,01,7.90
2018,02,17,16,02,7.80
2018,02,17,16,03,7.60
2018,02,17,16,04,7.50
2018,02,17,16,05,7.30
2018,02,17,16,06,7.20
2018,02,17,16,07,7.20
2018,02,17,16,08,7.10
2018,02,17,16,09,7.00
2018,02,17,16,10,7.00
2018,02,17,16,11,6.90
2018,02,17,16,12,6.90
2018,02,17,16,13,6.90
2018,02,17,16,14,6.90
2018,02,17,16,15,6.80
2018,02,17,16,16,6.80
2018,02,17,16,17,6.80
2018,02,17,16,18,6.80
2018,02,17,16,19,6.80
2018,02,17,16,20,6.80
2018,02,17,16,21,6.70
2018,02,17,16,22,6.70
2018,02,17,16,23,6.70
2018,02,17,16,24,6.70
2018,02,17,16,25,6.70
2018,02,17,16,26,6.60
2018,02,17,16,27,6.60
2018,02,17,16,28,6.60
2018,02,17,16,29,6.70
2018,02,17,16,30,6.60
2018,02,17,16,31,6.60
2018,02,17,16,32,6.60
2018,02,17,16,33,6.60
2018,02,17,16,34,6.60
2018,02,17,16,35,6.60
2018,02,17,16,36,6.60
2018,02,17,16,37,6.50
2018,02,17,16,38,6.50
2018,02,17,16,39,6.40
2018,02,17,16,40,6.40
2018,02,17,16,41,6.40
2018,02,17,16,42,6.30
2018,02,17,16,43,6.30
2018,02,17,16,44,6.30
2018,02,17,16,45,6.20
2018,02,17,16,46,6.20
2018,02,17,16,47,6.20
2018,02,17,16,48,6.10
2018,02,17,16,49,6.10
2018,02,17,16,50,6.10
2018,02,17,16,51,6.10
2018,02,17,16,52,6.10
2018,02,17,16,53,6.10
2018,02,17,16,54,6.00
2018,02,17,16,55,6.00
2018,02,17,16,56,6.00
2018,02,17,16,57,6.00
2018,02,17,16,58,6.00
2018,02,17,16,59,5.90
2018,02,17,17,00,5.90
2018,02,17,17,01,5.90
2018,02,17,17,02,5.90
2018,02,17,17,03,5.90
2018,02,17,17,04,5.90
2018,02,17,17,05,5.90
2018,02,17,17,06,5.90
2018,02,17,17,07,5.80
2018,02,17,17,08,5.80
2018,02,17,17,09,5.80
2018,02,17,17,10,5.80
2018,02,17,17,11,5.80
2018,02,17,17,12,5.80
2018,02,17,17,13,5.80
2018,02,17,17,14,5.80
2018,02,17,17,15,5.80
2018,02,17,17,16,5.80
2018,02,17,17,17,5.80
2018,02,17,17,18,5.80
2018,02,17,17,19,5.80
2018,02,17,17,20,5.80
2018,02,17,17,21,5.80
2018,02,17,17,22,5.80
2018,02,17,17,23,5.80
2018,02,17,17,24,5.70
2018,02,17,17,25,5.70
2018,02,17,17,26,5.70
2018,02,17,17,27,5.70
2018,02,17,17,28,5.60
2018,02,17,17,29,5.60
2018,02,17,17,30,5.60
2018,02,17,17,31,5.60
2018,02,17,17,32,5.50
2018,02,17,17,33,5.50
2018,02,17,17,34,5.50
2018,02,17,17,35,5.50
2018,02,17,17,36,5.50
2018,02,17,17,37,5.50
2018,02,17,17,38,5.50
2018,02,17,17,39,5.50
2018,02,17,17,40,5.50
2018,02,17,17,41,5.40
2018,02,17,17,42,5.40
2018,02,17,17,43,5.50
2018,02,17,17,44,5.40
2018,02,17,17,45,5.40
2018,02,17,17,46,5.40
2018,02,17,17,47,5.40
2018,02,17,17,48,5.40
2018,02,17,17,49,5.40
2018,02,17,17,50,5.40
2018,02,17,17,51,5.40
2018,02,17,17,52,5.40
2018,02,17,17,53,5.40
2018,02,17,17,54,5.40
2018,02,17,17,55,5.40
2018,02,17,17,56,5.40
2018,02,17,17,57,5.40
2018,02,17,17,58,5.30
2018,02,17,17,59,5.30
2018,02,17,18,00,5.30
2018,02,17,18,01,5.30
2018,02,17,18,02,5.30
2018,02,17,18,03,5.30
2018,02,17,18,04,5.30
2018,02,17,18,05,5.30
2018,02,17,18,06,5.30
2018,02,17,18,07,5.30
2018,02,17,18,08,5.30
2018,02,17,18,09,5.30
2018,02,17,18,10,5.30
2018,02,17,18,11,5.30
2018,02,17,18,12,5.30
2018,02,17,18,13,5.30
2018,02,17,18,14,5.30
